Location: Cabeza Gorda
(40.0667°N, 4.9667°W)
Time: 19:59:08
(UTC+00:00)

Okean 3 Rocket - Pass Details

Date: 15 January 2026
Orbit: 610 x 637 km, 82.5° (Epoch: 11 February)

Event Time Altitude Azimuth Distance (km) Brightness Sun altitude
Rises 05:58:05 0° 205° (SSW) 2,864 6.8 -19.2°
Reaches altitude 10° 06:00:24 10° 213° (SSW) 1,967 5.9 -18.7°
Maximum altitude 06:04:28 38° 282° (WNW) 948 4.0 -18.0°
Drops below altitude 10° 06:08:36 10° 351° (N) 1,996 5.9 -17.2°
Sets 06:10:59 0° 360° (N) 2,911 6.9 -16.8°
